Santuari del Far - Susqueda





Hora UTC 04:50
Temperatura 9.4 ºC
Humedad 92.0 %
Presión 1017.1 hPa
Pluja 0.0 mm
Velocidad viento 3.2 km/h
Dirección viento N

Datos diarios 2020-09-29



Hora UTC (invierno +1h; verano +2h)
Temperatura (ºC) Humedad (%) Presión (hPa) Velocidad viento (km/h) Precipitación (mm)
Hora UTC Aire Humedad Presión Vel. Dir. Vel. Max Dir. Intent. máx 5 min.
00:05 9.4 89.0 1018.3 3.2 N 3.2 0.0
00:10 9.6 88.0 1018.3 4.8 N 6.4 0.0
00:15 9.8 87.0 1018.3 1.6 N 6.4 0.0
00:20 10.0 86.0 1018.2 1.6 N 4.8 0.0
00:25 10.2 85.0 1018.1 3.2 N 8.0 0.0
00:30 10.2 84.0 1018.2 3.2 N 8.0 0.0
00:35 10.3 83.0 1018.2 6.4 N 6.4 0.0
00:40 10.4 83.0 1017.9 3.2 N 6.4 0.0
00:45 10.3 83.0 1017.9 0.0 N 6.4 0.0
00:50 10.3 82.0 1017.9 4.8 N 6.4 0.0
00:55 10.3 83.0 1018.0 6.4 N 8.0 0.0
01:00 10.3 83.0 1017.9 3.2 N 8.0 0.0
01:05 10.3 83.0 1017.9 3.2 N 6.4 0.0
01:10 10.2 83.0 1017.9 1.6 N 6.4 0.0
01:15 10.1 84.0 1017.9 1.6 N 4.8 0.0
01:20 10.1 84.0 1017.8 4.8 N 4.8 0.0
01:25 9.9 84.0 1017.8 1.6 N 4.8 0.0
01:30 9.9 84.0 1017.7 1.6 N 4.8 0.0
01:35 9.9 84.0 1017.7 1.6 N 4.8 0.0
01:40 9.9 83.0 1017.6 1.6 N 4.8 0.0
01:40 10.0 83.0 1017.6 1.6 N 6.4 0.0
01:50 9.9 83.0 1017.6 3.2 N 6.4 0.0
01:50 9.9 83.0 1017.5 1.6 N 6.4 0.0
01:55 9.8 83.0 1017.5 0.0 N 4.8 0.0
02:00 9.8 83.0 1017.4 3.2 N 4.8 0.0
02:05 9.7 84.0 1017.4 1.6 N 4.8 0.0
02:10 9.6 84.0 1017.4 3.2 N 4.8 0.0
02:15 9.5 85.0 1017.6 1.6 N 4.8 0.0
02:20 9.4 85.0 1017.6 3.2 N 4.8 0.0
02:25 9.3 86.0 1017.5 4.8 N 4.8 0.0
02:30 9.3 86.0 1017.4 0.0 N 6.4 0.0
02:35 9.3 87.0 1017.3 4.8 N 6.4 0.0
02:40 9.3 86.0 1017.2 4.8 N 6.4 0.0
02:45 9.3 86.0 1017.1 6.4 N 6.4 0.0
02:50 9.3 85.0 1017.1 1.6 N 6.4 0.0
02:55 9.3 85.0 1017.1 4.8 N 6.4 0.0
03:00 9.3 85.0 1017.1 4.8 N 6.4 0.0
03:10 9.3 85.0 1017.1 3.2 N 6.4 0.0
03:10 9.3 84.0 1017.0 4.8 N 6.4 0.0
03:15 9.2 84.0 1017.0 4.8 N 6.4 0.0
03:20 9.2 84.0 1017.0 0.0 N 4.8 0.0
03:25 9.1 84.0 1016.9 3.2 N 6.4 0.0
03:30 9.0 83.0 1016.9 1.6 N 6.4 0.0
03:35 9.0 83.0 1017.0 1.6 N 6.4 0.0
03:40 8.9 83.0 1017.1 1.6 N 6.4 0.0
03:45 8.9 83.0 1017.0 1.6 N 4.8 0.0
03:50 8.9 83.0 1017.0 1.6 N 6.4 0.0
03:55 8.9 83.0 1017.0 1.6 N 6.4 0.0
04:00 8.9 84.0 1017.0 4.8 N 6.4 0.0
04:05 8.9 85.0 1017.0 1.6 N 8.0 0.0
04:10 9.0 87.0 1016.8 1.6 N 8.0 0.0
04:15 9.1 88.0 1017.0 4.8 N 8.0 0.0
04:20 9.1 88.0 1016.9 3.2 N 8.0 0.0
04:25 9.1 89.0 1017.0 4.8 N 8.0 0.0
04:30 9.1 90.0 1017.1 1.6 N 8.0 0.0
04:35 9.2 90.0 1017.1 1.6 N 8.0 0.0
04:40 9.2 91.0 1016.9 3.2 N 8.0 0.0
04:45 9.3 91.0 1017.0 4.8 N 9.7 0.0
04:50 9.4 92.0 1017.1 3.2 N 9.7 0.0
Máxima 10.4 92.0 1018.3 6.4 N 9.7 0.0
Mínima 8.8 82.0 1016.8
Total 0.0